Home   Weather   Lakeland   Past weeks

Flag for USA Past Weather in Lakeland, Florida, USA — Yesterday and Last 2 Weeks

Now
79 °F

Partly sunny.


Feels Like: 80 °F
Forecast: 58 / 81 °F
Wind: 7 mph from South

Location: Lakeland Regional

Current Time: Jan 17, 2017 at 2:33:34 pm

Latest Report: Jan 17, 2017 at 1:55 pm


Visibility: 10 mi

Pressure: 30.21 "Hg

Humidity: 54%

Dew Point: 61 °F

Location of LakelandLocation

Past Weather in Lakeland — Graph

°F

Lakeland Temperature Yesterday

Maximum temperature yesterday: 79 °F (at 4:53 pm)
Minimum temperature yesterday: 57 °F (at 6:50 am)
Average temperature yesterday: 67 °F

High & Low Weather Summary for the Past Weeks

 TemperatureHumidityPressure
High84 °F (Jan 2, 2:52 pm)100% (Jan 2, 11:55 pm)30.61 "Hg (Jan 2, 11:55 pm)
Low34 °F (Jan 8, 4:55 am)34% (Jan 6, 3:50 pm)29.85 "Hg (Jan 4, 1:50 pm)
Average62 °F84%30.23 "Hg
* Reported Jan 2 12:50 pm — Jan 17 12:45 pm, Lakeland, Weather by CustomWeather, © 2017

Note: Actual official high and low records may vary slightly from our data, if they occured in-between our weather recording intervals... More about our weather records

Advertising

Lakeland Weather History for the Previous 24 Hours

Scroll right to see more
 ConditionsComfort  
Time TempWeatherWind HumidityBarometerVisibility
12:45 pm
Tue, Jan 17
77 °FScattered clouds.9 mph57%30.22 "Hg10 mi
11:50 am77 °FScattered clouds.8 mph61%30.25 "Hg10 mi
10:50 am75 °FSunny.7 mph69%30.28 "Hg10 mi
9:50 am72 °FSunny.7 mph78%30.27 "Hg10 mi
8:50 am66 °FSunny.3 mph94%30.26 "Hg10 mi
7:50 am59 °FSunny.3 mph100%30.24 "Hg10 mi
6:45 am59 °FClear.No wind100%30.24 "Hg10 mi
5:50 am61 °FClear.No wind100%30.22 "Hg10 mi
4:35 am59 °FClear.No wind94%30.22 "Hg10 mi
3:55 am59 °FClear.No wind94%30.23 "Hg10 mi
3:35 am57 °FClear.No wind100%30.23 "Hg10 mi
2:35 am59 °FClear.No wind100%30.23 "Hg10 mi
1:55 am59 °FClear.No wind100%30.24 "Hg10 mi
1:15 am61 °FClear.3 mph94%30.24 "Hg10 mi
12:35 am61 °FClear.No wind94%30.25 "Hg10 mi
11:35 pm
Mon, Jan 16
63 °FClear.3 mph88%30.25 "Hg10 mi
11:15 pm63 °FClear.3 mph88%30.26 "Hg10 mi
10:55 pm63 °FClear.5 mph88%30.26 "Hg10 mi
9:50 pm66 °FClear.7 mph83%30.25 "Hg10 mi
8:50 pm70 °FPassing clouds.8 mph73%30.25 "Hg10 mi
7:50 pm70 °FPassing clouds.7 mph73%30.24 "Hg10 mi
6:50 pm72 °FPassing clouds.5 mph61%30.23 "Hg10 mi
5:51 pm75 °FScattered clouds.6 mph54%30.22 "Hg10 mi
4:53 pm79 °FScattered clouds.7 mph48%30.22 "Hg10 mi
3:55 pm77 °FPartly sunny.7 mph51%30.22 "Hg10 mi
2:55 pm77 °FPartly sunny.6 mph51%30.22 "Hg10 mi
Weather by CustomWeather, © 2017

See weather overviewHow to use our weather pages